DECAYED

STARLINK-2688, 48660 (Decayed)

Orbit data source: Space-Track

STARLINK-2688, 48660 was a payload satellite owned by SpaceX/Seattle (US) in LEO that was launched on Wed, 26 May 2021 UTC via an FALCON 9 launch vehicle from the Air Force Eastern Test Range (AFETR). Payload-class satellites include a variety of spacecraft equipped with specific instruments for various scientific and technological missions. These include communications satellites like Starlink; space stations such as the ISS; scientific satellites like the Hubble; Earth observation satellites from companies like Planet Labs, Umbra, and HawkEye 360; GPS; miniature CubeSats for education and research; and military/defense satellites.

Not visible in the next 10 days
Identifier
48660, 2021-044Y
Orbit
Decayed
Country
Flag of USUS
Related business
Manufacturer
SpaceX/Seattle
Mission
Decayed Commercial Communications
Bus & Motor
STARLINK, Unknown motor
Mass
260 kg wet, ~248 kg dry
Launch date (UTC)
2021-05-26 (5 years ago)
Launch vehicle
FALCON 9
Launch site
Air Force Eastern Test Range (AFETR)
Object type
Payload
Rocket body
Debris
Shape & HBR
Box + 1 Pan, 10.1 m
Radar Cross Section
13.562 m², Large (>1 m²)

Expand to show TLE details & history
Last TLE update: 1 year ago

TLE from 1 year ago
0 STARLINK-2688
1 48660U 21044Y   25007.60727928  .07105979  12169-4  11653-2 0  9999
2 48660  53.0381 214.4578 0003867 279.1268 177.6883 16.32695150200602
Epoch: 2025-01-07T14:34Z
TLE epoch observation values (Epoch: 2025-01-07T14:34:28.929Z)
Latitude
52.66095°
Longitude
-10.31749°
Altitude
194.206 km
Speed
7.795 km/s
True Right ascension
21h 02m 51s
True Declination
52° 28' 51"
Sunlit
Object was in daylight at epoch
Visualization orbit readout
Latitude
Unknown
Longitude
Unknown
Altitude
Unknown
Speed
Unknown
Apparent Right ascension
Unknown
Apparent Declination
Unknown
Sunlit
N/A
Visualization observer readout
Local Sidereal Time
23:18:26
Azimuth
Unknown
Elevation
Unknown
Doppler factor
Unknown
Orbital elements
Apogee altitude
188.133 km
Perigee altitude
183.057 km
Semi-major axis
6,563.732 km
Eccentricity
0.00039
Inclination
53.0381°
RAAN
214.4578°
Arg. of periapsis
279.1268°
True anomaly
177.69009°
Mean anomaly
177.6883°
Eccentric anomaly
177.68919°
Mean motion
4.08147 °/min
Orbital period
88.2 mins
BSTAR
0.0011653
Loading maneuver chart data...
Computing Atmospheric mass density...
Loading historical data...
Loading historical data...
Loading historical data...
Loading historical data...
Loading historical data...
Loading historical data...
Loading historical data...

Documentation

Showing up to 5 results
|